[Date Prev][Date Next][Thread Prev][Thread Next] - [Date Index][Thread Index][Author Index]
2 Line ISS Keps 1-30
- Subject: [sarex] 2 Line ISS Keps 1-30
- From: "Dave Larsen Ph.D." <doc@xxxxxxxxxxx>
- Date: Thu, 30 Jan 2003 01:01:31 -0800
ISS
1 25544U 98067A 03030.18959491 .00014944 00000-0 18777-3 0 6398
2 25544 51.6363 353.4037 0005677 92.7893 108.2493 15.59912055239478
----
Via the sarex mailing list at AMSAT.ORG courtesy of AMSAT-NA.
To unsubscribe, send "unsubscribe sarex" to Majordomo@amsat.org
AMSAT Home